Location: Newark
(13.6797°N, 8.5297°E)
Time: 05:24:15
(UTC+00:00)

A-11 Canister half - Pass Details

Date: 27 January 2020
Orbit: 1517 x 1683 km, 47.2° (Epoch: 26 February)

Event Time Altitude Azimuth Distance (km) Brightness Sun altitude
Rises 06:21:25 0° 319° (NW) 4,662 11.0 5.5°
Reaches altitude 10° 06:24:25 10° 320° (NW) 3,690 10.5 6.2°
Maximum altitude 06:33:46 85° 48° (NE) 1,561 9.3 8.3°
Drops below altitude 10° 06:43:25 10° 137° (SE) 3,802 12.5 10.5°
Sets 06:46:33 0° 138° (SE) 4,809 12.9 11.2°
